GW3793 Weather Reports


Display with metric or nautical units.
time (UTC)temp
F
wind
direction
speed
MPH
gust
MPH
rain 1hr
in
rain 24hr
in
rain mn
in
humidity
%
barometer
mb
20260503012703 63 286 2.0 4.0 0.00 0.00 0.00 30 1018.5
20260503011803 64 283 2.0 4.0 0.00 0.00 0.00 31 1018.4
20260503010903 64 274 2.0 9.0 0.00 0.00 0.00 31 1018.4
20260503010217 64 307 2.0 6.0 0.00 0.00 0.00 31 1018.5
20260503005403 64 296 1.0 4.0 0.00 0.00 0.00 32 1018.6
20260503004503 64 223 2.0 4.0 0.00 0.00 0.00 32 1018.5
20260503003603 64 266 2.0 5.0 0.00 0.00 0.00 31 1018.6
20260503002703 65 286 2.0 5.0 0.00 0.00 0.00 29 1018.4
20260503001803 65 258 2.0 4.0 0.00 0.00 0.00 30 1018.5
20260503000903 65 215 2.0 5.0 0.00 0.00 0.00 29 1018.6
20260503000004 65 222 2.0 6.0 0.00 0.00 0.00 29 1018.7
20260502235403 65 11 2.0 10.0 0.00 0.00 0.00 31 1018.8
20260502234503 65 261 2.0 5.0 0.00 0.00 0.00 28 1018.7
20260502233603 65 247 2.0 7.0 0.00 0.00 0.00 30 1018.9
20260502232703 65 297 2.0 6.0 0.00 0.00 0.00 30 1019.3
20260502231803 66 253 2.0 5.0 0.00 0.00 0.00 32 1019.0
20260502230903 65 253 2.0 9.0 0.00 0.00 0.00 30 1019.2
20260502230003 65 278 2.0 4.0 0.00 0.00 0.00 31 1019.5
20260502225403 66 277 2.0 4.0 0.00 0.00 0.00 31 1019.3
20260502224503 65 292 2.0 6.0 0.00 0.00 0.00 32 1019.7
20260502223603 65 343 2.0 9.0 0.00 0.00 0.00 31 1019.6
20260502222703 66 331 2.0 9.0 0.00 0.00 0.00 31 1019.7
20260502221803 66 233 2.0 7.0 0.00 0.00 0.00 32 1019.7
20260502220903 66 355 2.0 9.0 0.00 0.00 0.00 32 1019.8
20260502220003 66 357 2.0 8.0 0.00 0.00 0.00 33 1019.9
20260502215403 67 357 2.0 8.0 0.00 0.00 0.00 29 1020.2
20260502214503 67 279 2.0 5.0 0.00 0.00 0.00 33 1019.8
20260502213818 67 207 3.0 7.0 0.00 0.00 0.00 32 1019.9
20260502212703 66 311 2.0 7.0 0.00 0.00 0.00 32 1020.1
20260502211803 66 327 2.0 12.0 0.00 0.00 0.00 33 1020.4
20260502210903 65 232 2.0 5.0 0.00 0.00 0.00 34 1020.3
20260502210003 64 276 2.0 7.0 0.00 0.00 0.00 35 1020.3
20260502205403 64 322 2.0 7.0 0.00 0.00 0.00 34 1020.4
20260502204503 65 260 2.0 13.0 0.00 0.00 0.00 32 1020.5
20260502203818 65 254 2.0 7.0 0.00 0.00 0.00 35 1020.8
20260502202703 63 310 1.0 10.0 0.00 0.00 0.00 38 1020.7
20260502201803 63 312 2.0 6.0 0.00 0.00 0.00 37 1021.0
20260502200904 64 307 2.0 9.0 0.00 0.00 0.00 35 1021.2
20260502200003 64 360 2.0 9.0 0.00 0.00 0.00 37 1021.1
20260502195617 64 299 2.0 5.0 0.00 0.00 0.00 37 1021.1
20260502194503 63 249 2.0 6.0 0.00 0.00 0.00 37 1020.8
20260502193603 63 2 2.0 11.0 0.00 0.00 0.00 36 1021.2
20260502192703 63 279 2.0 5.0 0.00 0.00 0.00 37 1021.4
20260502191803 63 336 2.0 8.0 0.00 0.00 0.00 36 1021.3
20260502190903 63 253 2.0 7.0 0.00 0.00 0.00 38 1021.2
20260502190003 62 317 2.0 10.0 0.00 0.00 0.00 37 1021.4
20260502185403 62 8 2.0 10.0 0.00 0.00 0.00 37 1021.6
20260502184503 62 3 3.0 11.0 0.00 0.00 0.00 37 1021.5
20260502183603 62 340 2.0 12.0 0.00 0.00 0.00 38 1021.6
20260502182703 62 338 2.0 12.0 0.00 0.00 0.00 38 1021.5
20260502181803 61 18 4.0 13.0 0.00 0.00 0.00 40 1021.7
20260502180903 60 322 2.0 8.0 0.00 0.00 0.00 38 1021.6
20260502163603 56 271 1.0 5.0 0.00 0.00 0.00 52 1021.7
20260502162703 55 243 1.0 5.0 0.00 0.00 0.00 52 1022.1
20260502161803 55 248 1.0 3.0 0.00 0.00 0.00 54 1021.9
20260502160903 54 315 1.0 3.0 0.00 0.00 0.00 54 1021.7
20260502151803 50 159 1.0 4.0 0.00 0.00 0.00 71 1021.6
20260502150903 48 150 2.0 3.0 0.00 0.00 0.00 72 1021.7
20260502123603 39 100 0.0 2.0 0.00 0.00 0.00 75 1021.1
20260502122703 39 0 0.0 0.0 0.00 0.00 0.00 76 1020.7
20260502121803 39 72 0.0 1.0 0.00 0.00 0.00 74 1020.5
20260502121116 39 34 0.0 2.0 0.00 0.00 0.00 74 1020.7
20260502115403 40 24 0.0 1.0 0.00 0.00 0.00 73 1020.5
20260502114717 41 24 0.0 1.0 0.00 0.00 0.00 73 1020.5
20260502113818 41 149 0.0 2.0 0.00 0.00 0.00 71 1020.5
20260502112703 41 0 0.0 0.0 0.00 0.00 0.00 71 1020.3
20260502111803 42 26 0.0 2.0 0.00 0.00 0.00 70 1020.4
20260502110903 42 24 1.0 2.0 0.00 0.00 0.00 70 1020.4
20260502110003 42 10 1.0 2.0 0.00 0.00 0.00 69 1020.4
20260502105403 43 358 0.0 2.0 0.00 0.00 0.00 70 1020.1
20260502104503 44 164 0.0 1.0 0.00 0.00 0.00 67 1019.9
20260502103603 45 167 0.0 1.0 0.00 0.00 0.00 66 1020.3
20260502102703 45 3 1.0 3.0 0.00 0.00 0.00 66 1020.2
20260502101803 44 5 1.0 3.0 0.00 0.00 0.00 69 1020.1
20260502100903 44 1 0.0 2.0 0.00 0.00 0.00 68 1020.2
20260502090903 45 158 0.0 2.0 0.00 0.00 0.00 64 1019.8
20260502070903 48 2 0.0 3.0 0.00 0.00 0.00 61 1019.5
20260502070003 48 9 0.0 1.0 0.00 0.00 0.00 61 1019.7
20260502065403 48 8 0.0 2.0 0.00 0.00 0.00 60 1019.7
20260502064503 49 4 1.0 3.0 0.00 0.00 0.00 60 1019.4
20260502063818 49 3 1.0 2.0 0.00 0.00 0.00 59 1019.5
20260502062918 49 8 1.0 2.0 0.00 0.00 0.00 59 1019.6
20260502061803 49 12 1.0 3.0 0.00 0.00 0.00 59 1019.4
20260502060903 49 5 1.0 3.0 0.00 0.00 0.00 58 1019.3
20260502060003 49 87 0.0 2.0 0.00 0.00 0.00 58 1019.4
20260502055403 49 70 0.0 4.0 0.00 0.00 0.00 58 1019.3
20260502054503 49 12 2.0 4.0 0.00 0.00 0.00 57 1019.3
20260502053603 49 13 1.0 2.0 0.00 0.00 0.00 58 1019.2
20260502052917 49 17 1.0 2.0 0.00 0.00 0.00 58 1019.2
20260502051803 49 4 1.0 2.0 0.00 0.00 0.00 60 1019.0
20260502050903 50 8 1.0 3.0 0.00 0.00 0.00 58 1019.0
20260502050217 50 12 1.0 3.0 0.00 0.00 0.00 58 1019.0
20260502045403 50 9 1.0 2.0 0.00 0.00 0.00 56 1019.0
20260502044718 50 14 1.0 2.0 0.00 0.00 0.00 56 1018.8
20260502043603 51 358 0.0 1.0 0.00 0.00 0.00 57 1018.9
20260502042703 51 356 0.0 1.0 0.00 0.00 0.00 56 1018.8
20260502041803 51 349 0.0 1.0 0.00 0.00 0.00 56 1018.9
20260502040903 52 336 0.0 1.0 0.00 0.00 0.00 56 1018.7
20260502040003 52 360 0.0 1.0 0.00 0.00 0.00 54 1018.6
20260502035403 52 4 0.0 1.0 0.00 0.00 0.00 53 1018.6
20260502034503 53 12 0.0 2.0 0.00 0.00 0.00 52 1018.6
20260502033817 53 334 0.0 2.0 0.00 0.00 0.00 50 1018.4
20260502032703 54 7 0.0 2.0 0.00 0.00 0.00 49 1018.4
20260502031803 55 0 0.0 0.0 0.00 0.00 0.00 48 1018.0
20260502030903 56 0 0.0 0.0 0.00 0.00 0.00 45 1018.3
20260502030003 56 2 0.0 4.0 0.00 0.00 0.00 43 1018.0
20260502025618 57 317 0.0 2.0 0.00 0.00 0.00 43 1018.0
20260502024717 57 338 0.0 3.0 0.00 0.00 0.00 42 1018.1
20260502023603 58 6 0.0 3.0 0.00 0.00 0.00 40 1017.8
20260502022703 59 356 1.0 3.0 0.00 0.00 0.00 40 1017.7
20260502022017 59 20 1.0 4.0 0.00 0.00 0.00 39 1017.7
20260502021117 60 310 1.0 4.0 0.00 0.00 0.00 38 1017.5
20260502020003 60 245 0.0 1.0 0.00 0.00 0.00 37 1017.6
20260502015403 60 230 0.0 2.0 0.00 0.00 0.00 37 1017.5
20260502014503 60 231 0.0 2.0 0.00 0.00 0.00 37 1017.7
20260502013603 61 314 1.0 4.0 0.00 0.00 0.00 37 1017.7